Hourly Weather Mons

Today, 8 August, Saturday

Time Temperature Precipitation Wind Pressure Humidity
00:00 +25°C° 0 mm 1 mps 761 mmHg 54%
01:00 +24°C° 0 mm 1 mps 761 mmHg 57%
02:00 +24°C° 0 mm 1 mps 761 mmHg 59%
03:00 +23°C° 0 mm 1 mps 761 mmHg 61%
04:00 +24°C° 0 mm 1 mps 761 mmHg 62%
05:00 +25°C° 0 mm 1 mps 761 mmHg 63%
06:00 +26°C° 0 mm 1 mps 761 mmHg 64%
07:00 +28°C° 0 mm 1 mps 761 mmHg 57%
08:00 +31°C° 0 mm 1 mps 761 mmHg 50%
09:00 +33°C° 0 mm 1 mps 761 mmHg 43%
10:00 +34°C° 0 mm 1 mps 761 mmHg 39%
11:00 +36°C° 0 mm 1 mps 761 mmHg 34%
12:00 +37°C° 0 mm 1 mps 761 mmHg 30%
13:00 +37°C° 0 mm 1 mps 760 mmHg 29%
14:00 +37°C° 0 mm 1 mps 760 mmHg 28%
15:00 +39°C° 0 mm 1 mps 760 mmHg 27%
16:00 +37°C° 0.1 mm 2 mps 760 mmHg 32%
17:00 +36°C° 0.1 mm 2 mps 760 mmHg 37%
18:00 +34°C° 0.1 mm 2 mps 760 mmHg 42%
19:00 +31°C° 0.5 mm 2 mps 760 mmHg 48%
20:00 +28°C° 0.5 mm 3 mps 760 mmHg 54%
21:00 +26°C° 0.5 mm 4 mps 760 mmHg 61%
22:00 +25°C° 0.9 mm 3 mps 760 mmHg 65%
23:00 +25°C° 0.9 mm 3 mps 760 mmHg 69%

Tomorrow, 9 August, Sunday

Time Temperature Precipitation Wind Pressure Humidity
00:00 +24°C° 0.9 mm 2 mps 760 mmHg 73%
01:00 +24°C° 0.4 mm 2 mps 760 mmHg 74%
02:00 +24°C° 0.4 mm 2 mps 760 mmHg 75%
03:00 +24°C° 0.4 mm 3 mps 760 mmHg 75%
04:00 +24°C° 0.1 mm 3 mps 760 mmHg 75%
05:00 +25°C° 0.1 mm 3 mps 759 mmHg 75%
06:00 +25°C° 0.1 mm 3 mps 759 mmHg 74%
07:00 +27°C° 0 mm 3 mps 759 mmHg 65%
08:00 +30°C° 0 mm 3 mps 759 mmHg 56%
09:00 +33°C° 0 mm 3 mps 760 mmHg 47%
10:00 +35°C° 0 mm 3 mps 759 mmHg 42%
11:00 +36°C° 0 mm 3 mps 759 mmHg 37%
12:00 +38°C° 0 mm 3 mps 758 mmHg 32%
13:00 +38°C° 0 mm 3 mps 758 mmHg 31%
14:00 +38°C° 0 mm 3 mps 758 mmHg 31%
15:00 +38°C° 0 mm 3 mps 758 mmHg 30%
16:00 +37°C° 0 mm 3 mps 757 mmHg 35%
17:00 +35°C° 0 mm 2 mps 757 mmHg 39%
18:00 +34°C° 0 mm 2 mps 757 mmHg 44%
19:00 +31°C° 0.8 mm 2 mps 757 mmHg 53%
20:00 +28°C° 0.8 mm 3 mps 757 mmHg 62%
21:00 +25°C° 0.8 mm 3 mps 758 mmHg 70%
22:00 +25°C° 0.6 mm 3 mps 758 mmHg 74%
23:00 +24°C° 0.6 mm 2 mps 757 mmHg 77%

Day after tomorrow, 10 August, Monday

Time Temperature Precipitation Wind Pressure Humidity
00:00 +23°C° 0.6 mm 2 mps 757 mmHg 80%
01:00 +23°C° 0.5 mm 2 mps 757 mmHg 81%
02:00 +23°C° 0.5 mm 2 mps 757 mmHg 82%
03:00 +23°C° 0.5 mm 2 mps 757 mmHg 83%
04:00 +22°C° 0.1 mm 3 mps 757 mmHg 82%
05:00 +24°C° 0.1 mm 3 mps 757 mmHg 81%
06:00 +24°C° 0.1 mm 3 mps 757 mmHg 80%
07:00 +27°C° 0 mm 3 mps 757 mmHg 70%
08:00 +29°C° 0 mm 3 mps 757 mmHg 60%
09:00 +33°C° 0 mm 3 mps 757 mmHg 50%
10:00 +34°C° 0 mm 3 mps 757 mmHg 45%
11:00 +36°C° 0 mm 3 mps 757 mmHg 39%
12:00 +37°C° 0 mm 3 mps 757 mmHg 33%
13:00 +37°C° 0 mm 3 mps 757 mmHg 32%
14:00 +37°C° 0 mm 3 mps 756 mmHg 31%
15:00 +38°C° 0 mm 3 mps 756 mmHg 31%
16:00 +36°C° 0 mm 2 mps 756 mmHg 35%
17:00 +35°C° 0 mm 2 mps 756 mmHg 40%
18:00 +33°C° 0 mm 1 mps 756 mmHg 44%
19:00 +31°C° 0.1 mm 2 mps 756 mmHg 49%
20:00 +29°C° 0.1 mm 3 mps 757 mmHg 53%
21:00 +27°C° 0.1 mm 3 mps 757 mmHg 58%
22:00 +26°C° 0.1 mm 3 mps 757 mmHg 61%
23:00 +26°C° 0.1 mm 3 mps 757 mmHg 63%

11 August, Tuesday

Time Temperature Precipitation Wind Pressure Humidity
00:00 +25°C° 0.1 mm 3 mps 757 mmHg 66%
01:00 +24°C° 0.2 mm 2 mps 757 mmHg 68%
02:00 +24°C° 0.2 mm 1 mps 757 mmHg 70%
03:00 +23°C° 0.2 mm 1 mps 757 mmHg 71%
04:00 +24°C° 0 mm 1 mps 757 mmHg 71%
05:00 +25°C° 0 mm 1 mps 757 mmHg 70%
06:00 +25°C° 0 mm 2 mps 757 mmHg 69%
07:00 +27°C° 0 mm 2 mps 757 mmHg 62%
08:00 +30°C° 0 mm 2 mps 757 mmHg 54%
09:00 +32°C° 0 mm 2 mps 757 mmHg 46%
10:00 +34°C° 0 mm 2 mps 757 mmHg 42%
11:00 +36°C° 0 mm 3 mps 757 mmHg 38%
12:00 +37°C° 0 mm 3 mps 757 mmHg 33%
13:00 +37°C° 0 mm 2 mps 757 mmHg 32%
14:00 +37°C° 0 mm 2 mps 757 mmHg 31%
15:00 +38°C° 0 mm 2 mps 756 mmHg 30%
16:00 +36°C° 0 mm 2 mps 756 mmHg 35%
17:00 +35°C° 0 mm 2 mps 756 mmHg 39%
18:00 +34°C° 0 mm 2 mps 756 mmHg 43%
19:00 +31°C° 0.1 mm 2 mps 756 mmHg 47%
20:00 +30°C° 0.1 mm 3 mps 756 mmHg 50%
21:00 +28°C° 0.1 mm 3 mps 756 mmHg 54%
22:00 +27°C° 0.1 mm 3 mps 756 mmHg 56%
23:00 +27°C° 0.1 mm 3 mps 757 mmHg 58%

12 August, Wednesday

Time Temperature Precipitation Wind Pressure Humidity
00:00 +26°C° 0.1 mm 3 mps 757 mmHg 61%
01:00 +26°C° 0.1 mm 3 mps 756 mmHg 63%
02:00 +25°C° 0.1 mm 3 mps 756 mmHg 65%
03:00 +24°C° 0.1 mm 3 mps 755 mmHg 67%
04:00 +25°C° 0 mm 3 mps 755 mmHg 67%
05:00 +25°C° 0 mm 3 mps 755 mmHg 67%
06:00 +26°C° 0 mm 3 mps 755 mmHg 67%
07:00 +28°C° 0 mm 4 mps 755 mmHg 60%
08:00 +30°C° 0 mm 4 mps 755 mmHg 53%
09:00 +33°C° 0 mm 5 mps 755 mmHg 46%
10:00 +35°C° 0 mm 5 mps 755 mmHg 43%
11:00 +36°C° 0 mm 5 mps 755 mmHg 39%
12:00 +37°C° 0 mm 5 mps 754 mmHg 35%
13:00 +37°C° 0 mm 5 mps 754 mmHg 36%
14:00 +37°C° 0 mm 5 mps 754 mmHg 36%
15:00 +37°C° 0 mm 5 mps 754 mmHg 37%
16:00 +35°C° 0.1 mm 5 mps 754 mmHg 42%
17:00 +33°C° 0.1 mm 4 mps 754 mmHg 47%
18:00 +30°C° 0.1 mm 4 mps 754 mmHg 53%
19:00 +28°C° 0.6 mm 3 mps 754 mmHg 62%
20:00 +26°C° 0.6 mm 3 mps 754 mmHg 71%
21:00 +24°C° 0.6 mm 2 mps 755 mmHg 80%
22:00 +23°C° 0.3 mm 2 mps 755 mmHg 82%
23:00 +22°C° 0.3 mm 3 mps 755 mmHg 84%

13 August, Thursday

Time Temperature Precipitation Wind Pressure Humidity
00:00 +21°C° 0.3 mm 3 mps 755 mmHg 86%
01:00 +21°C° 0.1 mm 3 mps 755 mmHg 87%
02:00 +20°C° 0.1 mm 3 mps 755 mmHg 87%
03:00 +20°C° 0.1 mm 4 mps 755 mmHg 87%
04:00 +20°C° 0 mm 4 mps 755 mmHg 87%
05:00 +20°C° 0 mm 5 mps 755 mmHg 86%
06:00 +19°C° 0 mm 6 mps 756 mmHg 86%
07:00 +21°C° 0 mm 6 mps 756 mmHg 77%
08:00 +22°C° 0 mm 6 mps 757 mmHg 69%
09:00 +23°C° 0 mm 6 mps 757 mmHg 60%
10:00 +24°C° 0 mm 6 mps 757 mmHg 55%
11:00 +26°C° 0 mm 6 mps 757 mmHg 50%
12:00 +28°C° 0 mm 6 mps 758 mmHg 45%
13:00 +28°C° 0 mm 5 mps 758 mmHg 45%
14:00 +28°C° 0 mm 5 mps 757 mmHg 45%
15:00 +28°C° 0 mm 4 mps 757 mmHg 45%
16:00 +27°C° 0 mm 3 mps 758 mmHg 48%
17:00 +26°C° 0 mm 3 mps 758 mmHg 50%
18:00 +26°C° 0 mm 2 mps 758 mmHg 53%
19:00 +25°C° 0 mm 2 mps 758 mmHg 56%
20:00 +24°C° 0 mm 2 mps 758 mmHg 59%
21:00 +21°C° 0 mm 2 mps 758 mmHg 61%
22:00 +21°C° 0 mm 2 mps 758 mmHg 64%
23:00 +21°C° 0 mm 2 mps 758 mmHg 66%
Show more